Weather History for Punta Gorda, FL

Change the Weather History Date:

Tuesday, December 4, 2012

  Actual Average Record
Temperature  
Mean Temperature 68 °F -  
Max Temperature 80 °F 76 °F 84 °F (2013)
Min Temperature 55 °F 53 °F 39 °F (2010)
Cooling Degree Days 2    
Growing Degree Days 18 (Base 50)    
Moisture  
Dew Point 56 °F    
Average Humidity 73    
Maximum Humidity 97    
Minimum Humidity 39    
Precipitation  
Precipitation 0.00 in - - ()
Sea Level Pressure  
Sea Level Pressure 30.23 in    
Wind  
Wind Speed 5 mph (ENE)    
Max Wind Speed 16 mph    
Max Gust Speed 20 mph    
Visibility 10 miles    
Events      
Averages and records for this station are not official NWS values.
T = Trace of Precipitation, MM = Missing Value Source: NWS Daily Summary

Daily Weather History Graph

Daily Weather History Graph

Search for Another Location

Airport:

Trip Planner

Search our weather history database for the weather conditions in past years. The results will help you decide how hot, cold, wet, or windy it might be!

Date:

Astronomy

Dec. 04, 2012 Rise Set
Actual Time 7:02 AM EST 5:34 PM EST
Civil Twilight 6:37 AM EST 5:59 PM EST
Nautical Twilight 6:08 AM EST 6:28 PM EST
Astronomical Twilight 5:40 AM EST 6:56 PM EST
Moon 10:59 PM EST (12/4) 11:13 AM EST (12/4)
Length of Visible Light 11h 22m
Length of Day
10h 32m
Waning Gibbous, 69% of the Moon is Illuminated
Dec 4
Waning Gibbous
Dec 6
Last Quarter
Dec 13
New
Dec 20
First Quarter
Dec 28
Full

Hourly Weather History & Observations

Time (EST) Temp. Heat Index Dew Point Humidity Pressure Visibility Wind Dir Wind Speed Gust Speed Precip Events Conditions
12:53 AM 55.9 °F - 53.1 °F 90% 30.25 in 10.0 mi Calm Calm - N/A   Clear
1:53 AM 57.9 °F - 55.0 °F 90% 30.25 in 10.0 mi NNE 5.8 mph - N/A   Mostly Cloudy
2:53 AM 57.0 °F - 55.0 °F 93% 30.24 in 10.0 mi ENE 5.8 mph - N/A   Partly Cloudy
3:53 AM 61.0 °F - 57.9 °F 90% 30.22 in 10.0 mi NE 3.5 mph - N/A   Overcast
4:53 AM 60.1 °F - 57.9 °F 93% 30.23 in 10.0 mi ENE 5.8 mph - N/A   Mostly Cloudy
5:53 AM 57.9 °F - 57.0 °F 97% 30.24 in 10.0 mi NNE 6.9 mph - N/A   Clear
6:53 AM 55.9 °F - 55.0 °F 97% 30.25 in 10.0 mi ENE 5.8 mph - N/A   Clear
7:53 AM 60.1 °F - 57.0 °F 90% 30.27 in 10.0 mi NE 4.6 mph - N/A   Clear
8:53 AM 66.0 °F - 57.9 °F 75% 30.27 in 10.0 mi ENE 5.8 mph - N/A   Clear
9:53 AM 73.0 °F - 55.9 °F 55% 30.30 in 10.0 mi East 9.2 mph - N/A   Clear
10:53 AM 78.1 °F - 53.1 °F 42% 30.28 in 10.0 mi Variable 4.6 mph - N/A   Clear
11:53 AM 79.0 °F - 52.0 °F 39% 30.26 in 10.0 mi ESE 5.8 mph - N/A   Scattered Clouds
12:53 PM 80.1 °F 80.0 °F 54.0 °F 40% 30.22 in 10.0 mi East 9.2 mph - N/A   Scattered Clouds
1:53 PM 78.1 °F - 57.9 °F 50% 30.20 in 10.0 mi East 9.2 mph - N/A   Overcast
2:53 PM 80.1 °F 80.6 °F 57.9 °F 47% 30.19 in 10.0 mi NE 16.1 mph 19.6 mph N/A   Scattered Clouds
3:53 PM 75.9 °F - 57.9 °F 54% 30.19 in 10.0 mi ENE 10.4 mph - N/A   Mostly Cloudy
4:53 PM 75.0 °F - 59.0 °F 57% 30.20 in 10.0 mi ENE 6.9 mph - N/A   Mostly Cloudy
5:53 PM 70.0 °F - 59.0 °F 68% 30.20 in 10.0 mi ENE 8.1 mph - N/A   Mostly Cloudy
6:53 PM 68.0 °F - 57.9 °F 70% 30.22 in 10.0 mi ENE 6.9 mph - N/A   Mostly Cloudy
7:53 PM 63.0 °F - 55.9 °F 78% 30.22 in 10.0 mi ENE 3.5 mph - N/A   Partly Cloudy
8:53 PM 60.1 °F - 55.0 °F 83% 30.22 in 10.0 mi East 4.6 mph - N/A   Clear
9:53 PM 57.9 °F - 54.0 °F 87% 30.22 in 10.0 mi ENE 4.6 mph - N/A   Clear
10:53 PM 59.0 °F - 54.0 °F 83% 30.21 in 10.0 mi ENE 5.8 mph - N/A   Clear
11:53 PM 60.1 °F - 54.0 °F 80% 30.21 in 10.0 mi Calm Calm - N/A   Clear